Search for airport 
image banner adimage banner ad
image banner ad

SSKX - Fazenda São Luíz do Matão Airport

Located in Carneirinho, Brazil

ICAO - SSKX, IATA -

Data provided by Airmate  

General information

Coordinates: S11°25'19" W37°19'25"
Elevation is 9 feet MSL.
Magnetic variation is -23° East
View others Airports in Sergipe

Operational data

Open for public use
Current time UTC:
Current local time:
Weather at : SBAR - Santa Maria ( 56 km )
METAR: SBAR 280200Z 05009KT 9999 FEW015 27/22 Q1010
TAF: TAF SBAR 272100Z 2800/2824 06005KT 9999 FEW015 TN25/2808Z TX28/2818Z BECMG 2812/2814 08015KT FEW020 BECMG 2820/2822 12010KT SCT018 RMK PGY
View NOTAMs / SUP AIP / TFR affecting this airport [VIEW]
Communications frequencies: [VIEW]

Runways:

RWY identifierQFULength (ft)Width (ft)SurfaceLDA (ft)
13164059DIRT
31164059DIRT

Airport contact information

Address: Carneirinho Brazil

Satellite view of SSKX